DELTA 1 DEB, 42090

Orbit data source: Space-Track

DELTA 1 DEB, 42090 is space debris in SSO originally from a launch on Sun, 15 Dec 1968 UTC launched from the Air Force Western Test Range (AFWTR). Debris objects in space refer to the collection of defunct objects orbiting the Earth. Examples of debris include non-operational satellites, rocket bodies, and fragments generated from explosions, collisions, or faulty payload assembly.

Loading next visibility...
Identifier
42090, 1968-114S
Orbit
SSO
Country
Flag of USUS
Related business
Manufacturer
Aerojet
Mission
Spacecraft
Bus & Motor
Unknown
Mass
Unknown
Launch date (UTC)
1968-12-15 (58 years ago)
Launch vehicle
Unknown
Launch site
Air Force Western Test Range (AFWTR)
Object type
Payload
Rocket body
Debris
Shape & HBR
Unknown shape, 0.092 m
Radar Cross Section
Medium (>0.1 m² and <1 m²)

Expand to show TLE details & history
Last TLE update: 3 days ago

TLE from 3 days ago
0 DELTA 1 DEB
1 42090U 68114S   26264.60958451  .00000099  00000-0  10025-2 0  9991
2 42090 101.4230  38.1723 0109551  25.7081 346.4292 12.41939967187665
Epoch: 2026-09-21T14:37Z
TLE epoch observation values (Epoch: 2026-09-21T14:37:48.101Z)
Latitude
11.56127°
Longitude
175.87776°
Altitude
1,416.376 km
Speed
7.191 km/s
True Right ascension
02h 23m 15s
True Declination
11° 29' 59"
Sunlit
Object was in full shadow at epoch
Visualization orbit readout
Latitude
Unknown
Longitude
Unknown
Altitude
Unknown
Speed
Unknown
Apparent Right ascension
Unknown
Apparent Declination
Unknown
Sunlit
N/A
Visualization observer readout
Local Sidereal Time
22:29:49
Azimuth
Unknown
Elevation
Unknown
Doppler factor
Unknown
Orbital elements
Apogee altitude
1,582.189 km
Perigee altitude
1,409.667 km
Semi-major axis
7,874.065 km
Eccentricity
0.01096
Inclination
101.423°
RAAN
38.1723°
Arg. of periapsis
25.7081°
True anomaly
346.13066°
Mean anomaly
346.4292°
Eccentric anomaly
346.28033°
Mean motion
3.10631 °/min
Orbital period
115.89 mins
BSTAR
0.0010025
Loading maneuver chart data...
Computing Atmospheric mass density...
Loading historical data...
Loading historical data...
Loading historical data...
Loading historical data...
Loading historical data...
Loading historical data...
Loading historical data...

Documentation

Showing up to 5 results
|